Lexington Weather

Lexington, Massachusetts, USA

40°F
11/27/2020 2:52am 
  • Lexington Conditions: Fog, Overcast
  • Temperature: 39.7°F / 4.3°CColder 0.6°F than last hour.
  • Dew Point: 39.0°FDecreased 0.6°Fsince last hour.
  • Relative Humidity: 97
  • Wind: Calm, 10-min avg: Calm, gust: None
  • Barometer: 29.97 in Steady
  • Visibility: ¼ mile
  • Rain Today: 0.00 in
  •   
Southeast Middlesex County - Special Weather Statement
 - SEE ALL NEARBY ALERTS -

Regional Weather Roundup
for Boston / Norton, MA

        
000
ASUS41 KBOX 241905
RWRBOX

REGIONAL WEATHER ROUNDUP
NATIONAL WEATHER SERVICE BOSTON/NORTON MA
200 PM EST TUE NOV 24 2020

NOTE:  "FAIR" INDICATES FEW OR NO CLOUDS BELOW 12,000 FEET WITH NO 
SIGNIFICANT WEATHER AND/OR OBSTRUCTIONS TO VISIBILITY.

MAZALL-242000-
EASTERN MASSACHUSETTS
  
CITY           SKY/WX    TMP DP  RH WIND       PRES   REMARKS
BOSTON         MOSUNNY   43  19  38 W14       30.27R                  
BEVERLY        SUNNY     43  20  39 NW13      30.25R                  
LAWRENCE       SUNNY     42  17  36 NW14G20   30.27R                  
BEDFORD        SUNNY     43  18  36 W14G23    30.26R                  
BLUE HILL        N/A     42  20  41 NW10G18   30.23R                  
NORWOOD        SUNNY     46  19  34 NW12      30.27R                  
MARSHFIELD     SUNNY     45  21  39 W9G16     30.26R                  
PLYMOUTH       SUNNY     45  20  36 NW9G23    30.25R                  
TAUNTON        SUNNY     47  21  35 NW8       30.26R                  
NEW BEDFORD    SUNNY     46  24  42 W10       30.26R                  
$$

MAZALL-242000-
CAPE COD AND THE ISLANDS
  
CITY           SKY/WX    TMP DP  RH WIND       PRES   REMARKS
FALMOUTH       SUNNY     45  21  39 NW13G23   30.25R                  
HYANNIS        SUNNY     45  24  43 NW14G21   30.23R                  
CHATHAM        SUNNY     44  24  45 NW13G24   30.25R                  
PROVINCETOWN   SUNNY     44  22  41 NW17G29   30.25S                  
NANTUCKET      SUNNY     46  26  45 NW15G24   30.24R                  
MARTHAS VNYRD  SUNNY     45  24  43 NW15      30.25S                  
$$
 
MAZALL-242000-
CENTRAL AND WESTERN MASSACHUSETTS
  
CITY           SKY/WX    TMP DP  RH WIND       PRES   REMARKS
WORCESTER      SUNNY     40  18  41 NW15      30.25R WCI  32          
FITCHBURG      SUNNY     43  21  41 W14       30.28R                  
ORANGE         SUNNY     42  18  37 NW12      30.28R                  
SPRINGFIELD    MOSUNNY   44  19  36 NW13      30.28R                  
WESTFIELD      SUNNY     44  20  38 W7        30.29R                  
NORTH ADAMS    MOSUNNY   41  20  43 NW8G21    30.29R                  
PITTSFIELD     SUNNY     39  19  44 NW14      30.26S WCI  31          
$$
 
RIZALL-242000-
RHODE ISLAND
  
CITY           SKY/WX    TMP DP  RH WIND       PRES   REMARKS
PROVIDENCE     MOSUNNY   45  21  38 NW12      30.28R                  
NEWPORT        SUNNY     44  24  45 NW12G17   30.27R                  
BLOCK ISLAND   SUNNY     44  24  45 N10       30.28S                  
SMITHFIELD     SUNNY     43  21  41 NW12G20   30.26S                  
WESTERLY       SUNNY     46  21  37 N16G22    30.27S                  
$$
 
CTZALL-242000-
CONNECTICUT
  
CITY           SKY/WX    TMP DP  RH WIND       PRES   REMARKS
BRADLEY INTL   MOSUNNY   46  19  34 NW13      30.29S                  
HARTFORD       SUNNY     46  21  37 NW8G17    30.30R                  
BRIDGEPORT     SUNNY     49  24  37 NW8       30.29S                  
DANBURY        SUNNY     45  23  42 NW8G18    30.30S                  
GROTON         SUNNY     47  22  37 NW21      30.27S                  
NEW HAVEN      SUNNY     49  25  39 NW8       30.29F                  
CHESTER        FAIR      46  19  34 NW12      30.28S                  
MERIDEN        SUNNY     45  19  35 NW12      30.30S                  
WILLIMANTIC    SUNNY     44  20  38 NW15G22   30.30R                  
OXFORD         SUNNY     43  23  45 NW9       30.29R                  
$$

MEZ002-015-021-024-NHZ003-005-008-011-012-014-VTZ005-008-242000-
NORTHERN NEW ENGLAND
  
CITY           SKY/WX    TMP DP  RH WIND       PRES   REMARKS
PORTLAND ME    SUNNY     37  13  37 W15       30.24R WCI  28          
BANGOR ME      MOSUNNY   33  11  39 NW20G26   30.18R WCI  21          
CONCORD NH     SUNNY     39  14  36 NW13      30.28R WCI  31          
MANCHESTER NH  MOSUNNY   42  13  30 N14G23    30.26R                  
NASHUA NH      SUNNY     41  17  38 NW13G23   30.28R                  
PORTSMOUTH NH  MOSUNNY   40  13  33 NW18G24   30.24R WCI  31          
JAFFREY NH     SUNNY     39  16  39 W7        30.25R                  
KEENE NH       SUNNY     40  18  41 NW9       30.28R                  
BURLINGTON VT  MOSUNNY   30  12  47 N12       30.39R WCI  20          
MT. WASHINGTON FOG        1   1 100 NW62G68     N/A  VSB 1/8 WCI -31  
$$

NYZ052-076-242000-
EASTERN NEW YORK
  
CITY           SKY/WX    TMP DP  RH WIND       PRES   REMARKS
ALBANY         MOSUNNY   39  21  48 W12       30.33S WCI  32          
NEW YORK CITY  MOSUNNY   50  24  36 NW16      30.31S                  
$$
 
ANZALL-242000-
MARINE OBSERVATIONS
  
STATION/POSITION TIME  TEMP    WIND        PRES    VSBY  WAVE
                       AIR SEA DIR/SP/G                  HT/PER
                 (UTC) (F)     (DEG/KT/KT) (MB)    (MI)  (FT/S)
BOSTON BUOY      1840   42 51  300/ 14/ 19 1025.1R
BUZZARDS BAY     1800          310/ 19/ 22 1025.6F
NANTUCKET SOUND  1840      51  310/ 14/ 19   N/A
MASS BAY-STELLWA NOT AVBL
ISLE OF SHOALS   1800   38     310/ 25/ 27 1023.1R
S OF BLOCK IS    1826      57                N/A           4/ 6
$$

......................KEY.........................
  SKY/WX - SKY CONDITION/PRESENT WEATHER
  TMP    - TEMPERATURE IN FAHRENHEIT
  DWPT   - DEWPOINT IN FAHRENHEIT
  RH     - RELATIVE HUMIDITY IN PERCENT
  WIND   - DIRECTION AND SPEED IN MPH
  PRES   - MEAN SEA LEVEL PRESSURE IN INCHES OF HG
  WCI    - WIND CHILL INDEX
  VSB    - VISIBILITY IN MILES
  HX     - HEAT INDEX
  TC     - TEMPERATURE IN CELSIUS
  VRB    - VARIABLE WIND DIRECTION
  N/A    - NOT AVAILABLE
  
      

Other recent Regional Weather Roundups

Thu Nov 26, 11:04pm

Thu Nov 26, 10:04pm

Thu Nov 26, 9:04pm

Thu Nov 26, 8:04pm

Thu Nov 26, 7:04pm

Thu Nov 26, 6:04pm

Thu Nov 26, 5:04pm

Thu Nov 26, 4:04pm

Thu Nov 26, 2:04pm

Thu Nov 26, 1:04pm

Thu Nov 26, 12:04pm

Thu Nov 26, 11:04am

Thu Nov 26, 10:04am

Thu Nov 26, 9:04am

Thu Nov 26, 8:04am

Thu Nov 26, 7:04am

Thu Nov 26, 6:04am

Thu Nov 26, 5:04am

Thu Nov 26, 4:04am

Thu Nov 26, 3:04am

Thu Nov 26, 2:04am

Thu Nov 26, 1:04am

Thu Nov 26, 12:04am

Wed Nov 25, 11:04pm

Wed Nov 25, 10:04pm

Wed Nov 25, 9:04pm

Wed Nov 25, 8:04pm

Wed Nov 25, 7:04pm

Wed Nov 25, 6:04pm

Wed Nov 25, 5:04pm

Wed Nov 25, 4:04pm

Wed Nov 25, 3:05pm

Wed Nov 25, 2:04pm

Wed Nov 25, 1:04pm

Wed Nov 25, 12:05pm

Wed Nov 25, 11:04am

Wed Nov 25, 10:04am

Wed Nov 25, 9:04am

Wed Nov 25, 8:04am

Wed Nov 25, 7:04am

Wed Nov 25, 6:04am

Wed Nov 25, 5:04am

Wed Nov 25, 4:04am

Wed Nov 25, 3:04am

Wed Nov 25, 2:04am

Wed Nov 25, 1:04am

Wed Nov 25, 12:04am

Tue Nov 24, 11:04pm

Tue Nov 24, 10:04pm

Tue Nov 24, 9:04pm

Tue Nov 24, 8:04pm

Tue Nov 24, 7:04pm

Tue Nov 24, 6:04pm

Tue Nov 24, 5:04pm

Tue Nov 24, 4:05pm

Tue Nov 24, 3:05pm

Tue Nov 24, 1:05pm

Tue Nov 24, 12:04pm

Tue Nov 24, 11:04am

Tue Nov 24, 10:04am

Tue Nov 24, 9:04am

Tue Nov 24, 8:04am

Tue Nov 24, 7:04am

Tue Nov 24, 6:04am

Tue Nov 24, 5:04am

Tue Nov 24, 4:05am

Tue Nov 24, 3:04am

Tue Nov 24, 2:04am

Tue Nov 24, 1:04am

Tue Nov 24, 12:05am

Mon Nov 23, 11:04pm

Mon Nov 23, 10:04pm

Mon Nov 23, 9:04pm

Mon Nov 23, 8:04pm

Mon Nov 23, 7:04pm

Mon Nov 23, 6:04pm

Mon Nov 23, 5:04pm

Mon Nov 23, 4:04pm

Mon Nov 23, 3:04pm

Mon Nov 23, 2:04pm

Mon Nov 23, 1:04pm

Mon Nov 23, 12:04pm

Mon Nov 23, 11:04am

Mon Nov 23, 10:04am

Mon Nov 23, 9:04am

Mon Nov 23, 8:05am

Mon Nov 23, 7:04am

Mon Nov 23, 6:04am

Mon Nov 23, 5:04am

Mon Nov 23, 4:04am

Mon Nov 23, 3:04am

Mon Nov 23, 2:04am

Mon Nov 23, 1:04am

Mon Nov 23, 12:05am

Sun Nov 22, 11:04pm

Sun Nov 22, 10:04pm

Sun Nov 22, 9:04pm

Sun Nov 22, 8:05pm

Sun Nov 22, 7:04pm

Sun Nov 22, 6:04pm

Sun Nov 22, 5:04pm

Sun Nov 22, 4:04pm

Sun Nov 22, 3:04pm

Sun Nov 22, 2:04pm

Sun Nov 22, 1:05pm

Sun Nov 22, 12:04pm

Sun Nov 22, 11:04am

Sun Nov 22, 10:05am

Sun Nov 22, 9:04am

Sun Nov 22, 8:04am

Sun Nov 22, 7:04am

Sun Nov 22, 6:04am

Sun Nov 22, 5:04am

Sun Nov 22, 4:04am

Sun Nov 22, 3:04am

Sun Nov 22, 2:04am

Sun Nov 22, 1:04am

Sun Nov 22, 12:04am

Sat Nov 21, 11:04pm

Sat Nov 21, 10:04pm

Sat Nov 21, 9:04pm

Sat Nov 21, 8:05pm

Sat Nov 21, 7:04pm

Sat Nov 21, 6:04pm

Sat Nov 21, 5:04pm

Sat Nov 21, 4:05pm

Sat Nov 21, 3:04pm

Sat Nov 21, 2:04pm

Sat Nov 21, 1:05pm

Sat Nov 21, 12:04pm

Sat Nov 21, 11:04am

Sat Nov 21, 10:04am

Sat Nov 21, 9:04am

Sat Nov 21, 8:04am

Sat Nov 21, 7:04am

Sat Nov 21, 6:04am

Sat Nov 21, 5:04am

Sat Nov 21, 4:04am

Sat Nov 21, 3:04am

Sat Nov 21, 2:04am

Sat Nov 21, 1:04am

Sat Nov 21, 12:04am

Fri Nov 20, 11:04pm

Fri Nov 20, 10:04pm

Fri Nov 20, 9:04pm

Fri Nov 20, 8:04pm

Fri Nov 20, 7:04pm

Fri Nov 20, 6:04pm

Fri Nov 20, 5:04pm

Fri Nov 20, 4:05pm

Fri Nov 20, 3:05pm

Fri Nov 20, 2:04pm

Fri Nov 20, 1:04pm

Fri Nov 20, 12:04pm

Fri Nov 20, 11:04am

Fri Nov 20, 10:04am

Fri Nov 20, 9:04am

Fri Nov 20, 8:04am

Fri Nov 20, 7:04am

Fri Nov 20, 6:04am

Fri Nov 20, 5:04am

Fri Nov 20, 4:04am

Fri Nov 20, 3:04am

Meta data:

ID: bf7cb2e2-1f03-423a-a72e-3ce31f4835a0
Link: https://api.weather.gov/products/bf7cb2e2-1f03-423a-a72e-3ce31f4835a0